TimeCST,TemperatureF,Dew PointF,Humidity,Sea Level PressureIn,VisibilityMPH,Wind Direction,Wind SpeedMPH,Gust SpeedMPH,PrecipitationIn,Events,Conditions,WindDirDegrees,DateUTC
12:15 AM,-11.2,-16.6,77,30.63,-9999.0,SSW,8.1,-,N/A,,Unknown,210,2014-01-23 06:15:00
12:35 AM,-13.0,-16.6,84,30.62,-9999.0,SSW,5.8,-,N/A,,Unknown,210,2014-01-23 06:35:00
12:55 AM,-11.2,-16.6,77,30.62,-9999.0,SSW,6.9,-,N/A,,Unknown,210,2014-01-23 06:55:00
1:15 AM,-11.2,-16.6,77,30.62,-9999.0,SSW,10.4,-,N/A,,Unknown,200,2014-01-23 07:15:00
1:35 AM,-13.0,-18.4,77,30.62,-9999.0,SSW,9.2,-,N/A,,Unknown,200,2014-01-23 07:35:00
1:55 AM,-13.0,-16.6,84,30.61,-9999.0,SSW,10.4,-,N/A,,Unknown,210,2014-01-23 07:55:00
2:15 AM,-11.2,-16.6,77,30.61,-9999.0,SSW,9.2,-,N/A,,Unknown,210,2014-01-23 08:15:00
2:35 AM,-13.0,-18.4,77,30.60,-9999.0,SSW,10.4,-,N/A,,Unknown,210,2014-01-23 08:35:00
2:55 AM,-13.0,-18.4,77,30.59,-9999.0,SSW,10.4,-,N/A,,Unknown,210,2014-01-23 08:55:00
3:15 AM,-13.0,-18.4,77,30.58,-9999.0,SSW,13.8,-,N/A,,Unknown,200,2014-01-23 09:15:00
3:35 AM,-13.0,-18.4,77,30.57,-9999.0,SSW,11.5,-,N/A,,Unknown,200,2014-01-23 09:35:00
3:55 AM,-9999,-9999,N/A,30.56,-9999.0,SSW,9.2,-,N/A,,Unknown,200,2014-01-23 09:55:00
4:15 AM,-11.2,-16.6,77,30.56,-9999.0,SSW,6.9,-,N/A,,Unknown,210,2014-01-23 10:15:00
4:35 AM,-11.2,-16.6,77,30.56,-9999.0,SSW,12.7,-,N/A,,Unknown,210,2014-01-23 10:35:00
4:55 AM,-9.4,-14.8,77,30.55,-9999.0,SSW,13.8,-,N/A,,Unknown,210,2014-01-23 10:55:00
5:15 AM,-9.4,-14.8,77,30.54,-9999.0,SSW,13.8,-,N/A,,Unknown,200,2014-01-23 11:15:00
5:35 AM,-11.2,-16.6,77,30.54,-9999.0,SSW,11.5,-,N/A,,Unknown,210,2014-01-23 11:35:00
5:55 AM,-9.4,-16.6,71,30.52,-9999.0,SSW,15.0,-,N/A,,Unknown,200,2014-01-23 11:55:00
6:15 AM,-9.4,-14.8,77,30.52,-9999.0,SSW,12.7,-,N/A,,Unknown,210,2014-01-23 12:15:00
6:35 AM,-9.4,-14.8,77,30.52,-9999.0,SSW,13.8,-,N/A,,Unknown,200,2014-01-23 12:35:00
6:55 AM,-9.4,-14.8,77,30.51,-9999.0,SSW,12.7,-,N/A,,Unknown,210,2014-01-23 12:55:00
7:15 AM,-9.4,-13.0,84,30.50,-9999.0,SSW,12.7,-,N/A,,Unknown,200,2014-01-23 13:15:00
7:35 AM,-7.6,-13.0,77,30.48,-9999.0,SSW,17.3,-,N/A,,Unknown,210,2014-01-23 13:35:00
7:55 AM,-9999,-9999,N/A,30.47,-9999.0,SSW,16.1,19.6,N/A,,Unknown,210,2014-01-23 13:55:00
8:15 AM,-5.8,-11.2,77,30.45,-9999.0,SSW,16.1,20.7,N/A,,Unknown,200,2014-01-23 14:15:00
8:35 AM,-5.8,-11.2,77,30.43,-9999.0,SSW,18.4,23.0,N/A,,Unknown,200,2014-01-23 14:35:00
8:55 AM,-4.0,-11.2,71,30.42,-9999.0,SSW,11.5,-,N/A,,Unknown,200,2014-01-23 14:55:00
9:15 AM,-4.0,-9.4,78,30.41,-9999.0,SSW,13.8,-,N/A,,Unknown,210,2014-01-23 15:15:00
9:35 AM,-4.0,-9.4,78,30.39,-9999.0,SSW,20.7,26.5,N/A,,Unknown,210,2014-01-23 15:35:00
9:55 AM,-2.2,-9.4,71,30.37,-9999.0,SSW,17.3,-,N/A,,Unknown,200,2014-01-23 15:55:00
10:15 AM,-2.2,-7.6,78,30.36,-9999.0,SSW,16.1,-,N/A,,Unknown,200,2014-01-23 16:15:00
10:35 AM,-0.4,-5.8,78,30.35,-9999.0,SSW,16.1,21.9,N/A,,Unknown,200,2014-01-23 16:35:00
10:55 AM,-0.4,-2.2,92,30.32,-9999.0,SSW,19.6,27.6,N/A,,Unknown,210,2014-01-23 16:55:00
11:15 AM,3.2,-0.4,85,30.30,-9999.0,SSW,24.2,29.9,N/A,,Unknown,210,2014-01-23 17:15:00
11:35 AM,8.6,5.0,85,30.29,-9999.0,SW,29.9,41.4,N/A,Rain,Freezing Rain,220,2014-01-23 17:35:00
11:55 AM,8.6,6.8,92,30.28,-9999.0,SW,27.6,44.9,N/A,Snow,Heavy Snow,220,2014-01-23 17:55:00
12:15 PM,10.4,6.8,85,30.27,-9999.0,SW,28.8,39.1,N/A,Snow,Heavy Snow,220,2014-01-23 18:15:00
12:35 PM,12.2,6.8,79,30.25,-9999.0,SW,28.8,34.5,N/A,,Unknown,220,2014-01-23 18:35:00
12:55 PM,14.0,8.6,79,30.21,-9999.0,SW,35.7,43.7,0.01,Snow,Heavy Snow,230,2014-01-23 18:55:00
1:15 PM,14.0,10.4,86,30.20,-9999.0,SW,35.7,48.3,N/A,Snow,Heavy Snow,230,2014-01-23 19:15:00
1:35 PM,15.8,12.2,86,30.20,-9999.0,SW,25.3,35.7,0.02,Snow,Heavy Snow,230,2014-01-23 19:35:00
1:55 PM,15.8,14.0,93,30.19,-9999.0,SW,25.3,31.1,0.02,Snow,Heavy Snow,230,2014-01-23 19:55:00
2:15 PM,17.6,14.0,86,30.16,-9999.0,SW,23.0,31.1,N/A,,Unknown,220,2014-01-23 20:15:00
2:35 PM,17.6,15.8,93,30.13,-9999.0,SW,23.0,35.7,N/A,,Unknown,220,2014-01-23 20:35:00
2:55 PM,17.6,15.8,93,30.10,-9999.0,SW,28.8,39.1,N/A,,Unknown,220,2014-01-23 20:55:00
3:15 PM,19.4,15.8,86,30.09,-9999.0,SW,25.3,34.5,N/A,,Unknown,230,2014-01-23 21:15:00
3:35 PM,19.4,15.8,86,30.07,-9999.0,SW,23.0,34.5,N/A,,Unknown,230,2014-01-23 21:35:00
3:55 PM,19.4,15.8,86,30.06,10.0,SW,25.3,33.4,N/A,,Unknown,230,2014-01-23 21:55:00
4:15 PM,21.2,17.6,86,30.03,10.0,SW,26.5,36.8,N/A,,Unknown,220,2014-01-23 22:15:00
4:35 PM,23.0,17.6,80,30.00,10.0,SW,33.4,42.6,N/A,,Unknown,230,2014-01-23 22:35:00
4:55 PM,23.0,17.6,80,30.01,10.0,WSW,28.8,41.4,N/A,,Unknown,240,2014-01-23 22:55:00
5:15 PM,23.0,17.6,80,29.98,10.0,SW,26.5,40.3,N/A,,Unknown,230,2014-01-23 23:15:00
5:35 PM,24.8,19.4,80,29.95,10.0,SW,29.9,41.4,N/A,,Unknown,230,2014-01-23 23:35:00
5:55 PM,24.8,19.4,80,29.94,10.0,SW,28.8,35.7,N/A,,Unknown,230,2014-01-23 23:55:00
6:15 PM,24.8,19.4,80,29.93,10.0,SW,27.6,33.4,N/A,,Unknown,230,2014-01-24 00:15:00
6:35 PM,24.8,19.4,80,29.94,10.0,SW,25.3,29.9,N/A,,Unknown,230,2014-01-24 00:35:00
6:55 PM,24.8,19.4,80,29.92,10.0,SW,23.0,27.6,N/A,,Unknown,230,2014-01-24 00:55:00
7:15 PM,24.8,21.2,86,29.91,10.0,WSW,25.3,33.4,N/A,,Unknown,240,2014-01-24 01:15:00
7:35 PM,26.6,21.2,80,29.91,10.0,WSW,23.0,34.5,N/A,,Unknown,240,2014-01-24 01:35:00
7:55 PM,26.6,23.0,86,29.90,10.0,WSW,21.9,-,N/A,,Unknown,240,2014-01-24 01:55:00
8:35 PM,26.6,23.0,86,29.88,10.0,WSW,21.9,26.5,N/A,,Unknown,250,2014-01-24 02:35:00
8:55 PM,28.4,24.8,86,29.88,10.0,WSW,21.9,-,N/A,,Unknown,250,2014-01-24 02:55:00
9:15 PM,28.4,24.8,86,29.87,10.0,WSW,20.7,-,N/A,,Unknown,250,2014-01-24 03:15:00
9:55 PM,30.2,26.6,86,29.85,10.0,West,21.9,-,N/A,,Unknown,260,2014-01-24 03:55:00
10:15 PM,32.0,26.6,80,29.86,10.0,West,19.6,-,N/A,,Unknown,270,2014-01-24 04:15:00
10:35 PM,32.0,26.6,80,29.86,10.0,West,17.3,21.9,N/A,,Unknown,280,2014-01-24 04:35:00
10:55 PM,30.2,28.4,93,29.87,10.0,West,15.0,-,N/A,,Unknown,280,2014-01-24 04:55:00
11:15 PM,28.4,26.6,93,29.88,10.0,WNW,12.7,19.6,N/A,,Unknown,290,2014-01-24 05:15:00
11:35 PM,32.0,28.4,87,29.88,10.0,WNW,18.4,-,N/A,,Unknown,300,2014-01-24 05:35:00
11:55 PM,32.0,28.4,87,29.88,10.0,NW,18.4,27.6,N/A,,Unknown,310,2014-01-24 05:55:00